Norris Lake Weather Center

Moon Phase Calendar



Norris Lake Water Level
Online Cameras

 


      

Current Conditions in Maynardville
5/29/2024 6:48:59 AM

56°F
Feels Like 56
Clear
Humidity
95%
Pressure
30.09"
Wind
1.3 mph (NW)
Dew Point
55°F
UV Index
0/10 (Low)
Visibility
6 mi

Hourly Forecast

Date & Time Wed, May 29
6:00 AM
Wed, May 29
7:00 AM
Wed, May 29
8:00 AM
Wed, May 29
9:00 AM
Wed, May 29
10:00 AM
Wed, May 29
11:00 AM
Wed, May 29
12:00 PM
Wed, May 29
1:00 PM
Wed, May 29
2:00 PM
Wed, May 29
3:00 PM
Wed, May 29
4:00 PM
Wed, May 29
5:00 PM
Wed, May 29
6:00 PM
Wed, May 29
7:00 PM
Wed, May 29
8:00 PM
Wed, May 29
9:00 PM
Wed, May 29
10:00 PM
Wed, May 29
11:00 PM
Thu, May 30
12:00 AM
Thu, May 30
1:00 AM
Thu, May 30
2:00 AM
Thu, May 30
3:00 AM
Thu, May 30
4:00 AM
Thu, May 30
5:00 AM
Thu, May 30
6:00 AM
Thu, May 30
7:00 AM
Thu, May 30
8:00 AM
Thu, May 30
9:00 AM
Thu, May 30
10:00 AM
Thu, May 30
11:00 AM
Thu, May 30
12:00 PM
Thu, May 30
1:00 PM
Thu, May 30
2:00 PM
Thu, May 30
3:00 PM
Thu, May 30
4:00 PM
Thu, May 30
5:00 PM
Thu, May 30
6:00 PM
Thu, May 30
7:00 PM
Thu, May 30
8:00 PM
Thu, May 30
9:00 PM
Thu, May 30
10:00 PM
Thu, May 30
11:00 PM
Fri, May 31
12:00 AM
Fri, May 31
1:00 AM
Fri, May 31
2:00 AM
Fri, May 31
3:00 AM
Fri, May 31
4:00 AM
Fri, May 31
5:00 AM
Condition
Clear

Clear

Clear

Clear

Clear

Clear

Clear

Clear

Clear

Clear

Clear

Clear

Clear

Clear

Clear

Clear

Clear

Clear

Clear

Clear

Clear

Clear

Clear

Clear

Clear

Clear

Clear

Clear

Clear

Clear

Clear

Clouds

Clouds

Clouds

Clouds

Clouds

Clouds

Clouds

Clouds

Clear

Clear

Clear

Clear

Clouds

Clouds

Clouds

Clouds

Clouds
Temperature 56°F56°F57°F60°F64°F69°F73°F73°F74°F74°F73°F72°F70°F67°F63°F59°F56°F54°F53°F52°F51°F50°F50°F49°F49°F50°F54°F60°F64°F67°F70°F72°F74°F74°F71°F71°F69°F68°F63°F57°F55°F54°F52°F51°F50°F49°F48°F47°F
Feels Like 55°F56°F57°F60°F64°F68°F71°F72°F72°F72°F72°F70°F69°F66°F62°F58°F55°F54°F52°F51°F50°F50°F50°F49°F49°F50°F54°F59°F63°F66°F69°F71°F72°F73°F70°F70°F68°F67°F62°F56°F54°F53°F51°F50°F49°F48°F47°F46°F
Cloudiness 1%1%1%3%3%3%2%3%3%8%6%6%6%6%8%3%3%3%3%2%2%0%0%0%1%1%0%1%0%0%6%15%22%60%73%69%64%61%51%0%0%1%6%15%19%36%31%58%
Visibility 6 mi6 mi6 mi6 mi6 mi6 mi6 mi6 mi6 mi6 mi6 mi6 mi6 mi6 mi6 mi6 mi6 mi6 mi6 mi6 mi6 mi6 mi6 mi6 mi6 mi6 mi6 mi6 mi6 mi6 mi6 mi6 mi6 mi6 mi6 mi6 mi6 mi6 mi6 mi6 mi6 mi6 mi6 mi6 mi6 mi6 mi6 mi6 mi
Precipitation 0%0%0%0%0%0%0%0%0%0%0%0%0%0%0%0%0%0%0%0%0%0%0%0%0%0%0%0%0%0%0%0%0%0%0%0%0%0%0%0%0%0%0%0%0%0%0%0%
Humidity 94%95%92%83%69%55%41%34%32%32%33%36%45%55%66%74%85%92%97%97%98%98%98%98%98%98%90%77%65%56%49%44%40%39%47%45%51%58%71%81%83%85%89%91%92%91%89%85%
Dew Point 54°F55°F55°F55°F54°F52°F48°F44°F43°F42°F42°F44°F48°F51°F52°F51°F52°F52°F52°F51°F50°F50°F49°F49°F48°F49°F52°F53°F52°F51°F50°F49°F48°F48°F50°F49°F51°F52°F54°F52°F50°F50°F49°F49°F48°F47°F45°F43°F
Pressure 30.09"30.09"30.09"30.09"30.09"30.09"30.09"30.09"30.09"30.06"30.06"30.06"30.06"30.06"30.09"30.12"30.12"30.15"30.15"30.15"30.15"30.15"30.15"30.15"30.15"30.18"30.18"30.18"30.18"30.15"30.12"30.12"30.09"30.09"30.09"30.09"30.09"30.09"30.12"30.12"30.15"30.15"30.18"30.18"30.18"30.18"30.18"30.18"
Wind Speed 2.4 mph1.3 mph1.2 mph4 mph5.8 mph10.9 mph11.8 mph12.6 mph13.1 mph13.5 mph13.4 mph12.8 mph10.7 mph9.8 mph9.3 mph7.2 mph5.7 mph4.9 mph2.7 mph2.1 mph1.8 mph1.7 mph2.2 mph2.3 mph2.5 mph2.3 mph1.9 mph2.2 mph3.2 mph3.7 mph3.7 mph3.4 mph3.7 mph6.5 mph9.2 mph9.4 mph8.8 mph7.8 mph5.4 mph4 mph4 mph4.2 mph3.4 mph3.5 mph3.5 mph4.1 mph3.9 mph3.6 mph
Wind
Direction
262°
W
304°
NW
291°
WNW
288°
WNW
266°
W
296°
WNW
298°
WNW
300°
WNW
299°
WNW
300°
WNW
307°
NW
311°
NW
313°
NW
318°
NW
326°
NW
325°
NW
326°
NW
325°
NW
318°
NW
328°
NNW
305°
NW
322°
NW
314°
NW
335°
NNW
341°
NNW
334°
NNW
332°
NNW
355°
N
13°
NNE
21°
NNE
30°
NNE
17°
NNE

N
360°
N
26°
NNE
24°
NNE
17°
NNE
20°
NNE
15°
NNE
11°
N

N

N
351°
N
338°
NNW

N
33°
NNE
37°
NE
32°
NNE

Daily Forecast

Date High Low Precip. Humidity
Today
May 29

Clear
74 °F
54 °F
0%
34%
Thursday
May 30

Clouds
74 °F
49 °F
0%
44%
Friday
May 31

Clouds
76 °F
46 °F
0%
29%
Saturday
Jun 1

Rain
72 °F
48 °F
50%
44%
Sunday
Jun 2

Rain
72 °F
56 °F
100%
94%
Monday
Jun 3

Rain
85 °F
63 °F
100%
41%
Tuesday
Jun 4

Rain
80 °F
62 °F
100%
64%
Wednesday
Jun 5

Rain
77 °F
61 °F
100%
77%
Thursday
Jun 6

Rain
84 °F
63 °F
100%
52%
Friday
Jun 7

Rain
87 °F
65 °F
100%
44%
Saturday
Jun 8

Rain
84 °F
66 °F
100%
61%
Sunday
Jun 9

Rain
76 °F
54 °F
100%
95%
Monday
Jun 10

Clear
74 °F
47 °F
0%
34%
Tuesday
Jun 11

Clear
78 °F
48 °F
0%
34%
Wednesday
Jun 12

Clouds
83 °F
56 °F
0%
39%
Thursday
Jun 13

Clear
86 °F
60 °F
0%
45%

Temperature 8-14 Day Outlook



Precipitation 8-14 Day Outlook




Quick Links
Norris Lake News
Norris Lake Photos
Norris Lake Videos




About Us
Contact Us
Site Map
Search Site
Advertise With Us
   
www.NorrisLakeNews.com
THE NORRIS LAKE WEBSITE

Copyright 2024, Lakes Online
Privacy    |    Legal